Location: ????????
(60.4333°N, 46.4710°E)
Time: 04:36:14
(UTC+00:00)

USA 267 - Pass Details

Date: 25 November 2020
Orbit: 1100 x 1107 km, 123.0° (Epoch: 18 January)

Event Time Altitude Azimuth Distance (km) Brightness Sun altitude
Exits shadow 14:50:04 - 137° (SE) 3,223 5.4 -19.2°
Reaches altitude 10° 14:50:49 10° 140° (SE) 2,958 5.2 -19.2°
Maximum altitude 14:57:00 43° 210° (SSW) 1,500 4.2 -20.0°
Drops below altitude 10° 15:03:12 10° 281° (WNW) 2,971 6.6 -20.8°
Sets 15:05:51 0° 289° (WNW) 3,932 7.3 -21.1°
